TDRS 3 (19548 NORAD) Tracking and Keplerian Element Data

This shows tracking and keplerian element data for the satellite.

Feedback or suggestion? Click here.




ElementValue
Catalog19548
NameTDRS 3
Epoch Orbit12037
Epoch Day33.24504677
Epoch Year2025
RAAN344.3354
Inclination12.9837
Eccentricity0.0041795
Argument of Perigee341.4161
Mean Anonmoly206.338
Mean Motion1.00270956
Decay Rate-2.93E-06
L11 19548U 88091B 25033.24504677 -.00000293 00000+0 00000+0 0 9994
L22 19548 12.9837 344.3354 0041795 341.4161 206.3380 1.00270956120376



Live tracking and technical data element details for TDRS 3 (NORAD 19548). TDRS 3 can be tracked NOW for your location showing map with azimuth and elevation plus other details from your city location.







IsCatalogInMostPopularTable: catalog: 19548, numindb: 625
Update: records affected: 1



GetName: 19548 TDRS 3

Hit Count: updated at: Fri, 14 Feb 2025 15:29:11 GMT